Address 0xf37a9079e67598eb96ca385c59e2ac081bb77e5e 6

 
 
Txn Hash Method
Block
From
To
Value [Txn Fee]
0x13bf3035eb9d0c0f30ac2af14b866b9900de9c92b700cc77bba5c8fbd91a2cdbSwap Exact Token...238501282022-01-18 2:53:00165 days 11 hrs ago0xf37a9079e67598eb96ca385c59e2ac081bb77e5eOUT SushiSwap: Router0 MATIC0.0001044344.400000001
0xd2e1fadd788ae6069c2b0998ef8a70e0a5c4ceedb783772568c0b1826e3bd28b0x5ed54dad209006952021-11-02 15:11:29241 days 23 hrs ago0xf37a9079e67598eb96ca385c59e2ac081bb77e5eOUT 0x44aaa9ebafb4557605de574d5e968589dc3a84d10 MATIC0.0065894430
0x3a02a3d964b20a81601d9afaf64e197f5429f3e548b08ff34f8978b8b7b1a51fApprove209006772021-11-02 15:10:53241 days 23 hrs ago0xf37a9079e67598eb96ca385c59e2ac081bb77e5eOUT USD Coin0 MATIC0.0017533830
0x7f001e728846abdf02dde1da9bc6d6f69859d880922054df12664a20edd7f735Swap Exact Token...208986002021-11-02 13:58:06242 days 37 mins ago0xf37a9079e67598eb96ca385c59e2ac081bb77e5eOUT SushiSwap: Router0 MATIC0.0053474430
0x637e8abe5503fe8ea399984f951857af7c53e6d7fafbed3b60fce627465c297cSwap Exact Token...206587992021-10-27 6:37:02248 days 7 hrs ago0xf37a9079e67598eb96ca385c59e2ac081bb77e5eOUT QuickSwap: Router0 MATIC0.0048400230
0x768681bae0a2edfc27ce8cd577b90d43f30483f0d1f2819b50ee7aac64df99ecSwap Exact Token...206587902021-10-27 6:36:44248 days 7 hrs ago0xf37a9079e67598eb96ca385c59e2ac081bb77e5eOUT QuickSwap: Router0 MATIC0.003561930
0x5c8338952965c8a31f51e42cc1d54a0b1310accf8740e6c088c42a44a8e852fc0xcd3d5ab2206587612021-10-27 6:35:46248 days 7 hrs ago0xf37a9079e67598eb96ca385c59e2ac081bb77e5eOUT 0x44aaa9ebafb4557605de574d5e968589dc3a84d10 MATIC0.0033224430
0x6934ef0c55c0b97abdc1cfe28ade142aae519da9704db9e18322209389a79d47Swap Exact Token...206587542021-10-27 6:35:32248 days 7 hrs ago0xf37a9079e67598eb96ca385c59e2ac081bb77e5eOUT QuickSwap: Router0 MATIC0.0050405430
0xda206499e14f7ed7bc46de889bc5d43cb5bc52ce16fb2e82f2283443a1bfb2aaSwap Exact Token...206587242021-10-27 6:33:34248 days 8 hrs ago0xf37a9079e67598eb96ca385c59e2ac081bb77e5eOUT QuickSwap: Router0 MATIC0.003561930
0x6506b3de7a93fe8c42656d5d81003b99117d24a4206f76b24947d809128e149aApprove206587162021-10-27 6:33:02248 days 8 hrs ago0xf37a9079e67598eb96ca385c59e2ac081bb77e5eOUT 0x14743e1c6f812154f7ecc980d890f0f5234103e70 MATIC0.0013980930
0xf67f3894a860c30c61bfea6332ebc47a52edce5e6bd02dd1237e8f403865f0170xcd3d5ab2206586912021-10-27 6:31:22248 days 8 hrs ago0xf37a9079e67598eb96ca385c59e2ac081bb77e5eOUT 0x44aaa9ebafb4557605de574d5e968589dc3a84d10 MATIC0.0033220830
0x0c73a84b1d57651b25c8cdc7b2649ab87402ab014ef24bfc16ef52e3e8667fb80x5ed54dad206574022021-10-27 5:36:12248 days 8 hrs ago0xf37a9079e67598eb96ca385c59e2ac081bb77e5eOUT 0x44aaa9ebafb4557605de574d5e968589dc3a84d10 MATIC0.0063184830
0xf0e77deaba1261a2cfa1f03777bbda234363ca801a84883d177990ac81e3ab7dSwap Exact Token...206573722021-10-27 5:35:12248 days 9 hrs ago0xf37a9079e67598eb96ca385c59e2ac081bb77e5eOUT SushiSwap: Router0 MATIC0.0051651630
0x0243b6c387ccadd125c3aea77eab9e10a39628d461c684395f86101ceed1bdc50x5ed54dad206571662021-10-27 5:28:08248 days 9 hrs ago0xf37a9079e67598eb96ca385c59e2ac081bb77e5eOUT 0x44aaa9ebafb4557605de574d5e968589dc3a84d10 MATIC0.0063184830
0x486efe3e92e2bc6499e3613765e70363172fd8073a95731facfa686f233c3209Swap Exact Token...206571392021-10-27 5:26:46248 days 9 hrs ago0xf37a9079e67598eb96ca385c59e2ac081bb77e5eOUT SushiSwap: Router0 MATIC0.0056144430
0xff15630f2dba4fbf165ac92bcad668a80f52bd66a82f044303400db03e57f1c40x5ed54dad206569642021-10-27 5:19:04248 days 9 hrs ago0xf37a9079e67598eb96ca385c59e2ac081bb77e5eOUT 0x44aaa9ebafb4557605de574d5e968589dc3a84d10 MATIC0.0063181230
0x3c6b9d092eb491f4e4affe13105e6b2c9e060cad46df14445fcf8a4389ddcae4Approve206569532021-10-27 5:18:38248 days 9 hrs ago0xf37a9079e67598eb96ca385c59e2ac081bb77e5eOUT Mapper: USDT Stablecoin0 MATIC0.0015621630
0x4cbba1b1d8d7e6b6eff81979243e58facf8a70208e38618b3b158cdd6620bb1aSwap Exact Token...206569312021-10-27 5:17:54248 days 9 hrs ago0xf37a9079e67598eb96ca385c59e2ac081bb77e5eOUT SushiSwap: Router0 MATIC0.0056140830
0x8bc759d03b9c9bf733b1728305e986eb0e9ea89f4de02838bc4db287e31378a9Approve206090642021-10-25 21:30:25249 days 17 hrs ago0xf37a9079e67598eb96ca385c59e2ac081bb77e5eOUT SushiSwap: SUSHI Token0 MATIC0.000346539166.655000002
0x9a8861e7824dbe7a2c17d855778f3d407673927bf1bb03a920f1b6c384114da3Swap Exact Token...206089602021-10-25 21:25:31249 days 17 hrs ago0xf37a9079e67598eb96ca385c59e2ac081bb77e5eOUT SushiSwap: Router0 MATIC0.0027749430
0x766442f99d843901b86ee2bf0c4f8ac08580a7d29e5faf7fef6375451cb9dd74Remove Liquidity...206088642021-10-25 21:22:11249 days 17 hrs ago0xf37a9079e67598eb96ca385c59e2ac081bb77e5eOUT SushiSwap: Router0 MATIC0.0051468930
0x3d7e50718bdceef0e748b0c4622fbaaeddb894964bfbd5a0037fa83e4a0a2618Withdraw And Har...206088102021-10-25 21:19:37249 days 17 hrs ago0xf37a9079e67598eb96ca385c59e2ac081bb77e5eOUT SushiSwap: MiniChef0 MATIC0.0037357230
0xfc2ad01e2f0e81e63380f3ae433239ebf30332a11cbbca15dc814696cc5aee4aTransfer205966422021-10-25 13:22:52250 days 1 hr ago0xf37a9079e67598eb96ca385c59e2ac081bb77e5eOUT0x2538a9da47d6369fb1a6af6f34f2076262d39b480.24 MATIC0.0006330
0xa70a08c9493939bc4eba4aa1590889289237e6f1b491615689f5ea27da5fe60cWithdraw205507562021-10-24 6:31:26251 days 8 hrs ago0xf37a9079e67598eb96ca385c59e2ac081bb77e5eOUT Polygon: MATIC Token1 MATIC0.0009482130
0x8c4a205acdbad0af005d6e649957a2b3921637fc28aec8561f2fec0c448ed7efWithdraw205507172021-10-24 6:30:04251 days 8 hrs ago0xf37a9079e67598eb96ca385c59e2ac081bb77e5eOUT Polygon: WMATIC Token0 MATIC0.0006078930
[ Download CSV Export 
Latest 11 internal transactions
Parent Txn Hash Block From To Value
0x8c4a205acdbad0af005d6e649957a2b3921637fc28aec8561f2fec0c448ed7ef205507172021-10-24 6:30:04251 days 8 hrs ago Polygon: WMATIC Token0xf37a9079e67598eb96ca385c59e2ac081bb77e5e1.364717559864451316 MATIC
0xacf0cc2ce92c7cc902c6a0c52769376d1c3982a529c882da4fa6b26cf5befd2c199933352021-10-08 18:30:30266 days 20 hrs ago SushiSwap: Router0xf37a9079e67598eb96ca385c59e2ac081bb77e5e0.900574709002332308 MATIC
0xc15aac08bc0ddd90098c45e6fddde9f500d5fb0feb463e56e77d01e7e7ea7785198753292021-10-05 15:19:16269 days 23 hrs ago DFYN Network: Router0xf37a9079e67598eb96ca385c59e2ac081bb77e5e215.379641059823234898 MATIC
0xbf5c35b67b690a5b6b71f5faf49eb0624f1ea716ddd81dc7d91c856408f33acb191446342021-09-15 18:35:49289 days 19 hrs ago QuickSwap: Router0xf37a9079e67598eb96ca385c59e2ac081bb77e5e293.161926990756683237 MATIC
0x57ce73ecb9941c50253402273f99b98db65212ee2213f463f50edae560745e56191428472021-09-15 17:19:08289 days 21 hrs ago QuickSwap: Router0xf37a9079e67598eb96ca385c59e2ac081bb77e5e289.984713631054645379 MATIC
0xc883c75d4ce80609f2bbd718b8d70abf432ad57e0bdefd20a03256e9578984f6191103752021-09-14 20:19:59290 days 18 hrs ago Polyroll: MATIC Token Game0xf37a9079e67598eb96ca385c59e2ac081bb77e5e6.6 MATIC
0x2b0b95e205156efb4b7de36875e992c801d3d37b0b2b9ab84d30c39f5eb01915191103042021-09-14 20:17:07290 days 18 hrs ago Polyroll: MATIC Token Game0xf37a9079e67598eb96ca385c59e2ac081bb77e5e5.94 MATIC
0xfb633ae7d3a002ba1dea737d9c306a1452711d73dfcd7cd50b0c9bf444f57b2f191101732021-09-14 20:12:37290 days 18 hrs ago Polyroll: MATIC Token Game0xf37a9079e67598eb96ca385c59e2ac081bb77e5e5.94 MATIC
0x39234d48a23171a68c60b289eca8dedecb53deb106af1dc7e05b653487093a0e191095102021-09-14 19:49:50290 days 18 hrs ago QuickSwap: Router0xf37a9079e67598eb96ca385c59e2ac081bb77e5e592.397122191491536628 MATIC
0xa3e4b0e367d5dfd7d18a75f4ba74befd14ea31d604e1c514a108be522da4cbfc187260062021-09-04 4:40:05301 days 9 hrs ago QuickSwap: Router0xf37a9079e67598eb96ca385c59e2ac081bb77e5e611.758318443640162482 MATIC
0xed3604123dff0077cce8fee6c3ca13bf6465f75bfaf7231e28733e86f1f12e38164301172021-07-03 4:01:40364 days 10 hrs ago Aave: WETH Gateway V20xf37a9079e67598eb96ca385c59e2ac081bb77e5e562 MATIC
[ Download CSV Export 
Loading

Contract Name:
0 MATIC

Compiler Version
0

Optimization Enabled:
0 MATIC

Other Settings:
-NA-
Block Transaction Gas Used Reward
Age Block Fee Address BC Fee Address Voting Power Jailed Incoming
Block Uncle Number Difficulty Gas Used Reward
Loading
Loading
Make sure to use the "Vote Down" button for any spammy posts, and the "Vote Up" for interesting conversations.